Location: Kott?ru
(16.6209°N, 80.6208°E)
Time: 14:44:36
(UTC+00:00)

USA 281 - Pass Details

Date: 18 September 2020
Orbit: 1079 x 1080 km, 106.0° (Epoch: 28 October)

Event Time Altitude Azimuth Distance (km) Brightness Sun altitude
Rises 23:30:46 0° 25° (NNE) 3,870 6.6 -14.1°
Reaches altitude 10° 23:33:19 10° 29° (NNE) 2,913 6.0 -13.5°
Maximum altitude 23:39:47 64° 109° (ESE) 1,186 3.7 -11.9°
Drops below altitude 10° 23:46:15 10° 190° (S) 2,910 5.3 -10.4°
Sets 23:48:47 0° 193° (SSW) 3,864 5.9 -9.8°
